Terminal Aerodrome Forecast
Issued by NWS St Louis, MO

Home | Current Version | Previous Version | Text Only | Print | Product List | Glossary On
Versions: 1 2 3 4 5 6 7 8 9 10 11 12 13 14 15 16 17 18 19 20 21 22 23 24 25 26 27 28 29
000
FTUS43 KLSX 251800 AAA
TAFSTL
TAF AMD
KSTL 251857Z 2519/2624 11008KT P6SM VCTS FEW060CB OVC150
      TEMPO 2519/2521 3SM TSRA OVC050CB
     FM252100 15012KT P6SM SCT250
     FM260600 19008KT P6SM BKN250
     FM261400 24012KT P6SM BKN250=

USA.gov is the U.S. government's official web portal to all federal, state and local government web resources and services.